Flag for Isle of Man

Past Weather in Douglas, Isle of Man — Yesterday and Last 2 Weeks

Now
57 °F

Passing clouds.


Feels Like: 57 °F
Forecast: 66 / 58 °F
Wind: 1 mph from North

Location: Isle Of Man / Ronaldsway Airport

Current Time: Aug 6, 2020 at 2:56:58 am

Latest Report: Aug 6, 2020 at 1:50 am


Visibility: N/A

Pressure: 29.89 "Hg

Humidity: 100%

Dew Point: 57 °F

Location of DouglasLocation

Past Weather in Douglas — Graph

°F

Douglas Temperature Yesterday

Maximum temperature yesterday: 61 °F (at 12:20 pm)
Minimum temperature yesterday: 57 °F (at 11:50 pm)
Average temperature yesterday: 60 °F

High & Low Weather Summary for the Past Weeks

 TemperatureHumidityPressure
High68 °F (Jul 31, 12:20 pm)100% (Jul 22, 2:50 am)30.24 "Hg (Jul 22, 2:50 am)
Low50 °F (Jul 24, 6:20 am)55% (Aug 3, 2:50 pm)29.33 "Hg (Jul 27, 10:50 am)
Average59 °F86%29.85 "Hg
* Reported Jul 22 12:50 am — Aug 6 12:50 am, Douglas. Weather by CustomWeather, © 2020

Note: Actual official high and low records may vary slightly from our data, if they occured in-between our weather recording intervals... More about our weather records

Douglas Weather History for the Previous 24 Hours

Scroll right to see more
 ConditionsComfort  
Time TempWeatherWind HumidityBarometerVisibility
12:50 am
Thu, Aug 6
57 °FPassing clouds.6 mph100%29.86 "HgN/A
11:50 pm
Wed, Aug 5
57 °FPassing clouds.3 mph100%29.83 "HgN/A
10:50 pm61 °FPassing clouds.5 mph94%29.83 "HgN/A
9:50 pm61 °FMostly cloudy.6 mph94%29.80 "HgN/A
8:50 pm61 °FPartly sunny.6 mph100%29.77 "HgN/A
8:20 pm61 °FBroken clouds.7 mph94%29.74 "HgN/A
7:50 pm59 °FDrizzle. Partly sunny.12 mph100%29.74 "Hg4 mi
7:20 pm59 °FDrizzle. Fog.14 mph100%29.71 "Hg2 mi
6:50 pm59 °FFog.13 mph100%29.71 "Hg2 mi
6:20 pm59 °FFog.13 mph100%29.68 "Hg0 mi
5:50 pm59 °FFog.15 mph100%29.68 "Hg0 mi
5:20 pm59 °FFog.16 mph100%29.65 "Hg1 mi
4:50 pm61 °FLight rain. Fog.17 mph100%29.65 "Hg1 mi
4:20 pm61 °FFog.22 mph94%29.65 "Hg2 mi
3:50 pm61 °FDrizzle. Mostly cloudy.17 mph100%29.65 "Hg2 mi
3:20 pm61 °FDrizzle. Mostly cloudy.20 mph100%29.65 "Hg2 mi
2:50 pm61 °FDrizzle. Mostly cloudy.14 mph100%29.65 "Hg1 mi
2:20 pm61 °FCloudy.17 mph94%29.65 "HgN/A
1:50 pm61 °FLight rain. Broken clouds.20 mph94%29.65 "HgN/A
1:20 pm61 °FLight rain. Broken clouds.23 mph94%29.65 "Hg5 mi
12:50 pm61 °FMore clouds than sun.23 mph94%29.65 "Hg4 mi
12:20 pm61 °FFog.22 mph94%29.65 "Hg3 mi
11:50 am59 °FRain. Cloudy.24 mph100%29.65 "Hg2 mi
11:20 am59 °FRain. Mostly cloudy.31 mph100%29.65 "Hg2 mi
10:50 am59 °FDrizzle. Low clouds.28 mph100%29.62 "Hg1 mi
10:20 am59 °FDrizzle. Fog.23 mph100%29.62 "Hg1 mi
9:50 am59 °FDrizzle. Mostly cloudy.23 mph100%29.62 "Hg2 mi
9:20 am59 °FRain. Mostly cloudy.23 mph100%29.62 "Hg2 mi
8:50 am59 °FLight rain. Fog.21 mph100%29.62 "Hg2 mi
8:20 am59 °FFog.20 mph100%29.62 "Hg2 mi
7:50 am59 °FFog.21 mph100%29.62 "Hg2 mi
7:20 am59 °FFog.20 mph100%29.62 "Hg1 mi
6:50 am59 °FFog.20 mph100%29.62 "Hg2 mi
6:20 am59 °FFog.22 mph100%29.62 "Hg1 mi
5:50 am59 °FFog.22 mph100%29.62 "Hg2 mi
5:20 am59 °FFog.20 mph100%29.62 "Hg3 mi
4:50 am59 °FMostly cloudy.22 mph100%29.62 "Hg4 mi
3:50 am59 °FLow clouds.24 mph100%29.62 "HgN/A
2:50 am59 °FLow clouds.23 mph100%29.62 "HgN/A
Weather by CustomWeather, © 2020

See weather overview